Location: Newark
(52.8300°N, 8.0000°E)
Time: 18:55:54
(UTC+00:00)

STARLINK-1083 - Pass Details

Date: 01 February 2020
Orbit: 349 x 351 km, 53.0° (Epoch: 21 February)

Event Time Altitude Azimuth Distance (km) Brightness Sun altitude
Rises 17:21:44 0° 283° (WNW) 2,181 7.9 -10.6°
Reaches altitude 10° 17:24:01 10° 267° (W) 1,334 7.1 -11.0°
Maximum altitude 17:26:23 22° 214° (SSW) 848 5.2 -11.3°
Drops below altitude 10° 17:28:45 10° 160° (SSE) 1,328 5.5 -11.7°
Enters shadow 17:31:02 - 145° (SE) 2,177 6.4 -12.0°
